User: anonymous   Login
Location: Newsoms
(36.6240°N, 77.1250°W)
Time: 05:08:45
(UTC-05:00)
Language:

BREEZE-M DEB (TANK) - Orbit

View from above orbital plane
View from above orbital plane
View from above satellite
View from above satellite

Ground track
Ground track

The orbit data is extracted from the following two-line orbital elements,

1 29649U 06056B   16043.73825770 +.00003105 +00000-0 +60724-3 0  9991
2 29649 049.4630 232.3081 5389595 215.4266 092.6813 04.97802331163317
Epoch (UTC): 12 February 2016 17:43:05
Eccentricity: 0.5389595
inclination: 49.4630°
perigee height: 302 km
apogee height: 15919 km
right ascension of ascending node: 232.3081°
argument of perigee: 215.4266°
revolutions per day: 4.97802331
mean anomaly at epoch: 92.6813°
orbit number at epoch: 16331

The dashed part of the orbit path shows where the satellite is in the earth's shadow,  

DLR